Location: Rounton
(54.4000°N, 1.3500°W)
Time: 22:02:54
(UTC+00:00)

Vanguard 3 - Pass Details

Date: 06 December 2021
Orbit: 508 x 3260 km, 33.3° (Epoch: 17 January)

Event Time Altitude Azimuth Distance (km) Brightness Sun altitude
Rises 08:25:01 0° 268° (W) 7,106 11.5 0.7°
Reaches altitude 10° 08:31:55 10° 255° (WSW) 5,798 11.2 1.5°
Maximum altitude 08:42:14 20° 218° (SW) 4,316 11.0 2.5°
Drops below altitude 10° 08:50:13 10° 178° (S) 4,324 11.8 3.3°
Sets 08:54:19 0° 161° (SSE) 4,859 12.6 3.7°
